Location: Newark
(45.5000°N, 11.4167°E)
Time: 16:04:17
(UTC+00:00)

Vanguard 3 - Pass Details

Date: 31 August 2019
Orbit: 508 x 3263 km, 33.4° (Epoch: 21 September)

Event Time Altitude Azimuth Distance (km) Brightness Sun altitude
Rises 11:50:12 0° 215° (SW) 7,033 12.5 52.4°
Reaches altitude 10° 11:56:22 10° 205° (SSW) 5,727 12.3 52.1°
Maximum altitude 12:08:35 26° 158° (SSE) 3,646 11.4 51.4°
Drops below altitude 10° 12:17:08 10° 107° (ESE) 3,933 10.7 50.8°
Sets 12:20:23 0° 95° (E) 4,541 10.8 50.5°
